BCS25Q OBBI-HECA

Flight info

Callsign BCS25Q
Flight time 2h 49m
Altitude 38000
Route BHR B457 NARMI N697 HIL T540 ENABI L550 NOVPA N697 MENLI
Aircraft B738/M-SDE2E3FGHIRWXY/LB1

Departure

Time 2026-05-06 08:13
Airport Bahrain International Airport (OBBI)

Arrival

Time 2026-05-06 11:02
Airport Cairo International Airport (HECA)
Time Latitude Longitude Altitude Speed Heading
2026-05-06 07:51 26.27446 50.62006 22 ft 0 kts 212°
2026-05-06 08:02 26.27449 50.62008 20 ft 3 kts 212°
2026-05-06 08:02 26.27472 50.62023 18 ft 4 kts 206°
2026-05-06 08:03 26.27497 50.62035 18 ft 4 kts 197°
2026-05-06 08:03 26.27523 50.62040 18 ft 4 kts 168°
2026-05-06 08:03 26.27538 50.62032 18 ft 0 kts 122°
2026-05-06 08:06 26.27536 50.62036 18 ft 2 kts 121°
2026-05-06 08:06 26.27522 50.62060 18 ft 6 kts 121°
2026-05-06 08:06 26.27495 50.62108 18 ft 9 kts 121°
2026-05-06 08:06 26.27502 50.62183 19 ft 12 kts 45°
2026-05-06 08:07 26.27519 50.62268 18 ft 14 kts 114°
2026-05-06 08:07 26.27465 50.62366 18 ft 16 kts 122°
2026-05-06 08:07 26.27400 50.62479 19 ft 18 kts 122°
2026-05-06 08:07 26.27327 50.62606 19 ft 20 kts 123°
2026-05-06 08:08 26.27247 50.62743 19 ft 22 kts 123°
2026-05-06 08:08 26.27162 50.62891 19 ft 24 kts 126°
2026-05-06 08:08 26.27066 50.63039 19 ft 23 kts 122°
2026-05-06 08:08 26.26978 50.63191 19 ft 24 kts 123°
2026-05-06 08:09 26.26884 50.63353 20 ft 25 kts 126°
2026-05-06 08:09 26.26790 50.63517 19 ft 24 kts 122°
2026-05-06 08:09 26.26702 50.63670 18 ft 23 kts 123°
2026-05-06 08:09 26.26617 50.63817 19 ft 22 kts 122°
2026-05-06 08:10 26.26534 50.63959 19 ft 22 kts 124°
2026-05-06 08:10 26.26454 50.64098 18 ft 21 kts 122°
2026-05-06 08:10 26.26376 50.64233 20 ft 21 kts 123°
2026-05-06 08:10 26.26293 50.64378 18 ft 24 kts 122°
2026-05-06 08:11 26.26195 50.64546 18 ft 28 kts 123°
2026-05-06 08:11 26.26093 50.64726 18 ft 26 kts 122°
2026-05-06 08:11 26.26021 50.64892 20 ft 22 kts 91°
2026-05-06 08:11 26.26094 50.64999 20 ft 16 kts 21°
2026-05-06 08:12 26.26182 50.64931 20 ft 21 kts 303°
2026-05-06 08:12 26.26384 50.64578 16 ft 89 kts 303°
2026-05-06 08:12 26.26828 50.63810 23 ft 145 kts 302°
2026-05-06 08:12 26.27384 50.62780 421 ft 160 kts 299°
2026-05-06 08:13 26.27915 50.61707 1182 ft 159 kts 302°
2026-05-06 08:13 26.28472 50.60616 1808 ft 164 kts 302°
2026-05-06 08:13 26.29121 50.59432 2047 ft 192 kts 300°
2026-05-06 08:13 26.29418 50.57905 2223 ft 215 kts 266°
2026-05-06 08:14 26.29291 50.56161 2359 ft 235 kts 266°
2026-05-06 08:14 26.29224 50.54307 2666 ft 244 kts 268°
2026-05-06 08:14 26.29211 50.52397 3054 ft 251 kts 269°
2026-05-06 08:14 26.29240 50.50389 3286 ft 269 kts 270°
2026-05-06 08:15 26.29304 50.48287 3813 ft 273 kts 270°
2026-05-06 08:15 26.29391 50.46170 4394 ft 275 kts 271°
2026-05-06 08:15 26.29492 50.44036 5029 ft 275 kts 271°
2026-05-06 08:15 26.29602 50.41913 5708 ft 275 kts 270°
2026-05-06 08:16 26.29717 50.39789 6391 ft 274 kts 271°
2026-05-06 08:16 26.29833 50.37655 7017 ft 277 kts 271°
2026-05-06 08:16 26.29951 50.35513 7666 ft 278 kts 271°
2026-05-06 08:16 26.30075 50.33352 8333 ft 281 kts 273°
2026-05-06 08:17 26.30550 50.31229 9009 ft 286 kts 288°
2026-05-06 08:17 26.31300 50.29163 9719 ft 289 kts 290°
2026-05-06 08:17 26.32081 50.27078 10247 ft 298 kts 290°
2026-05-06 08:17 26.32908 50.24859 10402 ft 321 kts 290°
2026-05-06 08:18 26.33784 50.22487 10547 ft 341 kts 290°
2026-05-06 08:18 26.34705 50.19973 10682 ft 359 kts 290°
2026-05-06 08:18 26.35666 50.17330 10813 ft 376 kts 290°
2026-05-06 08:18 26.36662 50.14578 10953 ft 389 kts 290°
2026-05-06 08:19 26.37678 50.11764 11396 ft 392 kts 290°
2026-05-06 08:19 26.38698 50.08931 11867 ft 395 kts 290°
2026-05-06 08:19 26.39725 50.06075 12309 ft 399 kts 290°
2026-05-06 08:19 26.40757 50.03202 12872 ft 399 kts 290°
2026-05-06 08:20 26.41795 50.00307 13363 ft 403 kts 291°
2026-05-06 08:20 26.42839 49.97392 13838 ft 406 kts 291°
2026-05-06 08:20 26.43890 49.94458 14362 ft 406 kts 290°
2026-05-06 08:20 26.44931 49.91544 15011 ft 404 kts 290°
2026-05-06 08:21 26.45959 49.88666 15492 ft 407 kts 289°
2026-05-06 08:21 26.47012 49.85717 15933 ft 411 kts 289°
2026-05-06 08:21 26.48062 49.82775 16312 ft 416 kts 290°
2026-05-06 08:21 26.49137 49.79761 16700 ft 420 kts 289°
2026-05-06 08:22 26.50175 49.76718 17203 ft 420 kts 287°
2026-05-06 08:22 26.51043 49.73601 17700 ft 420 kts 284°
2026-05-06 08:22 26.51823 49.70461 18208 ft 420 kts 283°
2026-05-06 08:22 26.52581 49.67300 18603 ft 422 kts 283°
2026-05-06 08:23 26.53341 49.64125 18957 ft 425 kts 283°
2026-05-06 08:23 26.54117 49.60932 19319 ft 427 kts 283°
2026-05-06 08:23 26.54906 49.57729 19688 ft 429 kts 283°
2026-05-06 08:23 26.55707 49.54509 20041 ft 431 kts 283°
2026-05-06 08:24 26.56515 49.51284 20399 ft 432 kts 283°
2026-05-06 08:24 26.57328 49.48044 20762 ft 434 kts 283°
2026-05-06 08:24 26.58144 49.44794 21085 ft 436 kts 283°
2026-05-06 08:24 26.58963 49.41527 21414 ft 438 kts 283°
2026-05-06 08:25 26.59788 49.38238 21736 ft 439 kts 283°
2026-05-06 08:25 26.60611 49.34948 22059 ft 441 kts 283°
2026-05-06 08:25 26.61435 49.31649 22382 ft 442 kts 283°
2026-05-06 08:25 26.62262 49.28337 22691 ft 443 kts 283°
2026-05-06 08:26 26.63092 49.25007 22973 ft 445 kts 283°
2026-05-06 08:26 26.63923 49.21668 23248 ft 447 kts 283°
2026-05-06 08:26 26.64756 49.18321 23508 ft 448 kts 283°
2026-05-06 08:26 26.65591 49.14958 23735 ft 449 kts 283°
2026-05-06 08:27 26.66428 49.11587 23980 ft 450 kts 283°
2026-05-06 08:27 26.67264 49.08216 24223 ft 450 kts 283°
2026-05-06 08:27 26.68101 49.04836 24404 ft 452 kts 283°
2026-05-06 08:27 26.68940 49.01440 24593 ft 454 kts 282°
2026-05-06 08:28 26.69782 48.98033 24818 ft 454 kts 282°
2026-05-06 08:28 26.70622 48.94633 25069 ft 454 kts 282°
2026-05-06 08:28 26.71461 48.91229 25329 ft 453 kts 282°
2026-05-06 08:28 26.72298 48.87833 25526 ft 454 kts 282°
2026-05-06 08:29 26.73136 48.84423 25702 ft 455 kts 282°
2026-05-06 08:29 26.73976 48.81006 25869 ft 456 kts 282°
2026-05-06 08:29 26.74816 48.77582 26023 ft 456 kts 282°
2026-05-06 08:29 26.75657 48.74157 26217 ft 456 kts 282°
2026-05-06 08:30 26.76330 48.70758 26450 ft 451 kts 275°
2026-05-06 08:30 26.76601 48.67290 26714 ft 446 kts 267°
2026-05-06 08:30 26.76490 48.63835 26996 ft 443 kts 265°
2026-05-06 08:30 26.76356 48.60351 27229 ft 442 kts 265°
2026-05-06 08:31 26.76238 48.56917 27464 ft 441 kts 265°
2026-05-06 08:31 26.76133 48.53532 27731 ft 440 kts 265°
2026-05-06 08:31 26.76036 48.50165 28013 ft 438 kts 265°
2026-05-06 08:31 26.75940 48.46760 28313 ft 437 kts 265°
2026-05-06 08:32 26.75844 48.43375 28609 ft 435 kts 265°
2026-05-06 08:32 26.75747 48.40004 28927 ft 433 kts 265°
2026-05-06 08:32 26.75649 48.36645 29251 ft 431 kts 265°
2026-05-06 08:32 26.75552 48.33298 29555 ft 429 kts 265°
2026-05-06 08:33 26.75462 48.29970 29873 ft 428 kts 265°
2026-05-06 08:33 26.75374 48.26647 30171 ft 426 kts 265°
2026-05-06 08:33 26.75287 48.23355 30435 ft 424 kts 265°
2026-05-06 08:33 26.75199 48.20061 30662 ft 424 kts 265°
2026-05-06 08:34 26.75140 48.17876 30794 ft 424 kts 265°
2026-05-06 08:34 26.74960 48.11343 31320 ft 421 kts 265°
2026-05-06 08:34 26.74870 48.08092 31613 ft 419 kts 264°
2026-05-06 08:35 26.74778 48.04842 31905 ft 418 kts 264°
2026-05-06 08:35 26.74686 48.01598 32171 ft 416 kts 264°
2026-05-06 08:35 26.74593 47.98365 32447 ft 415 kts 264°
2026-05-06 08:35 26.74500 47.95144 32744 ft 413 kts 264°
2026-05-06 08:36 26.74407 47.91940 33034 ft 412 kts 264°
2026-05-06 08:36 26.74317 47.88737 33318 ft 411 kts 265°
2026-05-06 08:36 26.74393 47.85543 33600 ft 412 kts 268°
2026-05-06 08:36 26.74557 47.82350 33921 ft 410 kts 268°
2026-05-06 08:37 26.74733 47.79180 34283 ft 406 kts 268°
2026-05-06 08:37 26.74906 47.76036 34567 ft 404 kts 268°
2026-05-06 08:37 26.75073 47.72895 34761 ft 404 kts 268°
2026-05-06 08:37 26.75234 47.69756 34954 ft 404 kts 268°
2026-05-06 08:38 26.75392 47.66622 35198 ft 403 kts 268°
2026-05-06 08:38 26.75547 47.63498 35443 ft 401 kts 268°
2026-05-06 08:38 26.75700 47.60380 35667 ft 401 kts 268°
2026-05-06 08:38 26.75852 47.57271 35866 ft 400 kts 268°
2026-05-06 08:39 26.76004 47.54165 36096 ft 399 kts 268°
2026-05-06 08:39 26.76154 47.51067 36309 ft 398 kts 268°
2026-05-06 08:39 26.76304 47.47972 36517 ft 398 kts 268°
2026-05-06 08:39 26.76452 47.44888 36724 ft 397 kts 268°
2026-05-06 08:40 26.76600 47.41808 36927 ft 396 kts 268°
2026-05-06 08:40 26.76746 47.38774 37128 ft 396 kts 268°
2026-05-06 08:40 26.77027 47.35660 37290 ft 399 kts 273°
2026-05-06 08:40 26.77483 47.32595 37462 ft 400 kts 274°
2026-05-06 08:41 26.77971 47.29535 37711 ft 399 kts 274°
2026-05-06 08:41 26.78457 47.26536 37990 ft 396 kts 274°
2026-05-06 08:41 26.78950 47.23453 37964 ft 397 kts 274°
2026-05-06 08:42 26.79894 47.17412 37965 ft 396 kts 274°
2026-05-06 08:42 26.80824 47.11350 37976 ft 394 kts 273°
2026-05-06 08:43 26.81743 47.05311 37981 ft 394 kts 273°
2026-05-06 08:43 26.82657 46.99274 37977 ft 393 kts 273°
2026-05-06 08:44 26.83569 46.93238 37985 ft 393 kts 273°
2026-05-06 08:44 26.84479 46.87200 37998 ft 393 kts 273°
2026-05-06 08:45 26.85385 46.81167 37984 ft 393 kts 273°
2026-05-06 08:45 26.86289 46.75135 37984 ft 392 kts 273°
2026-05-06 08:46 26.87188 46.69111 37987 ft 392 kts 273°
2026-05-06 08:46 26.88085 46.63088 37988 ft 392 kts 273°
2026-05-06 08:47 26.88979 46.57067 37988 ft 392 kts 273°
2026-05-06 08:47 26.89871 46.51037 37989 ft 392 kts 272°
2026-05-06 08:48 26.90762 46.45002 38014 ft 393 kts 272°
2026-05-06 08:48 26.91651 46.38960 37998 ft 393 kts 272°
2026-05-06 08:49 26.92548 46.32924 37990 ft 393 kts 272°
2026-05-06 08:49 26.93449 46.26877 37992 ft 393 kts 272°
2026-05-06 08:50 26.94347 46.20826 37992 ft 394 kts 272°
2026-05-06 08:50 26.95243 46.14770 37989 ft 394 kts 272°
2026-05-06 08:51 26.96134 46.08718 38000 ft 394 kts 272°
2026-05-06 08:51 26.97025 46.02655 38006 ft 394 kts 272°
2026-05-06 08:52 26.97913 45.96590 38000 ft 394 kts 272°
2026-05-06 08:52 26.98798 45.90527 38004 ft 394 kts 272°
2026-05-06 08:53 26.99682 45.84454 38004 ft 395 kts 272°
2026-05-06 08:53 27.00562 45.78386 37995 ft 395 kts 272°
2026-05-06 08:54 27.01435 45.72352 37999 ft 395 kts 272°
2026-05-06 08:54 27.02312 45.66268 37999 ft 395 kts 272°
2026-05-06 08:55 27.03187 45.60185 38005 ft 395 kts 272°
2026-05-06 08:55 27.04056 45.54096 38000 ft 395 kts 272°
2026-05-06 08:56 27.04910 45.48007 38004 ft 395 kts 272°
2026-05-06 08:56 27.05720 45.42008 38004 ft 394 kts 271°
2026-05-06 08:57 27.06401 45.35916 38007 ft 394 kts 270°
2026-05-06 08:57 27.07062 45.29819 38008 ft 394 kts 270°
2026-05-06 08:58 27.07733 45.23718 38034 ft 394 kts 270°
2026-05-06 08:58 27.08409 45.17621 38022 ft 394 kts 270°
2026-05-06 08:59 27.09085 45.11524 38008 ft 393 kts 270°
2026-05-06 08:59 27.09751 45.05488 38008 ft 393 kts 270°
2026-05-06 09:00 27.10419 44.99407 38032 ft 392 kts 270°
2026-05-06 09:00 27.11084 44.93330 38011 ft 393 kts 270°
2026-05-06 09:01 27.11746 44.87254 38013 ft 392 kts 270°
2026-05-06 09:01 27.12402 44.81213 38013 ft 392 kts 270°
2026-05-06 09:02 27.13060 44.75136 38021 ft 392 kts 270°
2026-05-06 09:02 27.13714 44.69052 38016 ft 392 kts 270°
2026-05-06 09:03 27.14366 44.62965 38010 ft 393 kts 270°
2026-05-06 09:03 27.15014 44.56880 37999 ft 393 kts 270°
2026-05-06 09:04 27.15661 44.50793 38016 ft 393 kts 270°
2026-05-06 09:04 27.16305 44.44703 38017 ft 393 kts 270°
2026-05-06 09:05 27.16947 44.38611 38024 ft 394 kts 270°
2026-05-06 09:05 27.17583 44.32504 38017 ft 394 kts 270°
2026-05-06 09:06 27.18214 44.26390 38023 ft 394 kts 270°
2026-05-06 09:06 27.18838 44.20330 38038 ft 394 kts 270°
2026-05-06 09:07 27.19465 44.14220 38035 ft 394 kts 270°
2026-05-06 09:07 27.20088 44.08120 38028 ft 394 kts 270°
2026-05-06 09:08 27.20712 44.01984 38042 ft 394 kts 270°
2026-05-06 09:08 27.21327 43.95907 38033 ft 394 kts 270°
2026-05-06 09:09 27.21942 43.89805 38031 ft 393 kts 270°
2026-05-06 09:09 27.22560 43.83649 38014 ft 393 kts 270°
2026-05-06 09:10 27.23163 43.77616 38025 ft 393 kts 270°
2026-05-06 09:10 27.23774 43.71473 38036 ft 393 kts 270°
2026-05-06 09:11 27.24374 43.65425 38039 ft 393 kts 270°
2026-05-06 09:11 27.24979 43.59321 38042 ft 393 kts 270°
2026-05-06 09:12 27.25582 43.53219 38039 ft 393 kts 270°
2026-05-06 09:12 27.26176 43.47170 38042 ft 392 kts 269°
2026-05-06 09:13 27.26772 43.41085 38061 ft 392 kts 269°
2026-05-06 09:13 27.27356 43.35086 38048 ft 391 kts 269°
2026-05-06 09:14 27.27935 43.29110 38044 ft 391 kts 269°
2026-05-06 09:14 27.28520 43.23043 38044 ft 390 kts 269°
2026-05-06 09:15 27.29106 43.16939 38060 ft 390 kts 269°
2026-05-06 09:15 27.29681 43.10921 38045 ft 390 kts 269°
2026-05-06 09:16 27.30258 43.04864 38042 ft 389 kts 269°
2026-05-06 09:16 27.30830 42.98814 38063 ft 390 kts 269°
2026-05-06 09:17 27.31402 42.92751 38056 ft 390 kts 269°
2026-05-06 09:17 27.31971 42.86687 38050 ft 390 kts 269°
2026-05-06 09:18 27.32536 42.80630 38052 ft 390 kts 269°
2026-05-06 09:18 27.33100 42.74572 38058 ft 389 kts 269°
2026-05-06 09:19 27.33660 42.68515 38058 ft 389 kts 269°
2026-05-06 09:19 27.34217 42.62458 38056 ft 389 kts 269°
2026-05-06 09:20 27.34771 42.56418 38066 ft 389 kts 269°
2026-05-06 09:20 27.35230 42.51384 38059 ft 389 kts 269°
2026-05-06 09:21 27.35781 42.45327 38059 ft 389 kts 269°
2026-05-06 09:21 27.36326 42.39275 38080 ft 389 kts 268°
2026-05-06 09:22 27.36867 42.33217 38063 ft 389 kts 268°
2026-05-06 09:22 27.37404 42.27168 38062 ft 388 kts 269°
2026-05-06 09:23 27.37937 42.21142 38067 ft 389 kts 269°
2026-05-06 09:23 27.38470 42.15083 38073 ft 389 kts 268°
2026-05-06 09:24 27.39000 42.09023 38069 ft 389 kts 268°
2026-05-06 09:24 27.39528 42.02965 38066 ft 390 kts 268°
2026-05-06 09:25 27.40052 41.96934 38089 ft 390 kts 268°
2026-05-06 09:25 27.40571 41.90870 38073 ft 389 kts 268°
2026-05-06 09:26 27.41096 41.84807 38068 ft 389 kts 268°
2026-05-06 09:26 27.41615 41.78743 38067 ft 389 kts 268°
2026-05-06 09:27 27.42157 41.72673 38068 ft 393 kts 271°
2026-05-06 09:27 27.43701 41.66746 38101 ft 406 kts 282°
2026-05-06 09:27 27.44921 41.63845 38095 ft 417 kts 290°
2026-05-06 09:28 27.46382 41.61165 38111 ft 419 kts 291°
2026-05-06 09:28 27.49510 41.55631 38102 ft 419 kts 291°
2026-05-06 09:29 27.52633 41.50092 38092 ft 419 kts 291°
2026-05-06 09:29 27.55729 41.44538 38080 ft 418 kts 291°
2026-05-06 09:30 27.58819 41.38984 38076 ft 418 kts 291°
2026-05-06 09:30 27.61895 41.33424 38074 ft 418 kts 291°
2026-05-06 09:31 27.64966 41.27870 38069 ft 417 kts 291°
2026-05-06 09:31 27.68032 41.22323 38060 ft 416 kts 291°
2026-05-06 09:32 27.71092 41.16781 38066 ft 415 kts 291°
2026-05-06 09:32 27.74142 41.11247 38077 ft 415 kts 291°
2026-05-06 09:33 27.77191 41.05710 38072 ft 416 kts 291°
2026-05-06 09:33 27.80224 41.00189 38070 ft 416 kts 291°
2026-05-06 09:34 27.83269 40.94629 38079 ft 416 kts 291°
2026-05-06 09:34 27.86314 40.89060 38086 ft 417 kts 291°
2026-05-06 09:35 27.89365 40.83475 38078 ft 418 kts 291°
2026-05-06 09:35 27.92417 40.77882 38074 ft 418 kts 291°
2026-05-06 09:36 27.95466 40.72285 38084 ft 419 kts 291°
2026-05-06 09:36 27.98521 40.66674 38087 ft 419 kts 291°
2026-05-06 09:37 28.01569 40.61062 38084 ft 419 kts 291°
2026-05-06 09:37 28.04613 40.55456 38095 ft 418 kts 291°
2026-05-06 09:38 28.07648 40.49857 38091 ft 418 kts 291°
2026-05-06 09:38 28.10668 40.44277 38101 ft 418 kts 291°
2026-05-06 09:39 28.13694 40.38685 38098 ft 417 kts 291°
2026-05-06 09:39 28.16719 40.33083 38101 ft 417 kts 291°
2026-05-06 09:40 28.19741 40.27475 38107 ft 416 kts 291°
2026-05-06 09:40 28.24267 40.19062 38097 ft 417 kts 291°
2026-05-06 09:41 28.27264 40.13488 38099 ft 417 kts 291°
2026-05-06 09:41 28.30308 40.07884 38099 ft 420 kts 294°
2026-05-06 09:42 28.33937 40.02594 38143 ft 427 kts 298°
2026-05-06 09:42 28.37718 39.97408 38128 ft 428 kts 298°
2026-05-06 09:43 28.41493 39.92183 38099 ft 428 kts 298°
2026-05-06 09:43 28.45244 39.86928 38121 ft 428 kts 298°
2026-05-06 09:44 28.48981 39.81661 38114 ft 428 kts 298°
2026-05-06 09:44 28.52719 39.76380 38122 ft 430 kts 298°
2026-05-06 09:45 28.56466 39.71086 38123 ft 430 kts 298°
2026-05-06 09:45 28.60209 39.65790 38119 ft 430 kts 298°
2026-05-06 09:46 28.63953 39.60487 38122 ft 429 kts 298°
2026-05-06 09:46 28.67689 39.55187 38136 ft 429 kts 298°
2026-05-06 09:47 28.71403 39.49911 38134 ft 430 kts 298°
2026-05-06 09:47 28.75146 39.44588 38125 ft 430 kts 298°
2026-05-06 09:48 28.78881 39.39268 38131 ft 430 kts 298°
2026-05-06 09:48 28.82620 39.33938 38143 ft 430 kts 298°
2026-05-06 09:49 28.86337 39.28630 38127 ft 431 kts 298°
2026-05-06 09:49 28.90067 39.23299 38124 ft 430 kts 298°
2026-05-06 09:50 28.93798 39.17959 38125 ft 430 kts 298°
2026-05-06 09:50 28.97530 39.12610 38134 ft 431 kts 299°
2026-05-06 09:51 29.01266 39.07248 38132 ft 431 kts 299°
2026-05-06 09:51 29.05000 39.01882 38127 ft 431 kts 299°
2026-05-06 09:52 29.08659 38.96514 38115 ft 425 kts 293°
2026-05-06 09:52 29.09953 38.93556 38132 ft 410 kts 282°
2026-05-06 09:52 29.10770 38.90461 38120 ft 403 kts 275°
2026-05-06 09:53 29.11143 38.84183 38137 ft 394 kts 264°
2026-05-06 09:53 29.11068 38.77897 38123 ft 396 kts 264°
2026-05-06 09:54 29.11012 38.71655 38117 ft 398 kts 264°
2026-05-06 09:54 29.10974 38.65328 38126 ft 398 kts 264°
2026-05-06 09:55 29.10939 38.59108 38119 ft 400 kts 264°
2026-05-06 09:55 29.10901 38.52740 38116 ft 400 kts 264°
2026-05-06 09:56 29.10861 38.46409 38116 ft 401 kts 264°
2026-05-06 09:56 29.10817 38.40031 38111 ft 401 kts 264°
2026-05-06 09:57 29.10767 38.33660 38111 ft 401 kts 264°
2026-05-06 09:57 29.10709 38.27280 38106 ft 401 kts 264°
2026-05-06 09:58 29.10649 38.20901 38100 ft 401 kts 264°
2026-05-06 09:58 29.10586 38.14516 38109 ft 402 kts 264°
2026-05-06 09:59 29.10520 38.08124 38098 ft 402 kts 264°
2026-05-06 09:59 29.10452 38.01736 38067 ft 402 kts 264°
2026-05-06 10:00 29.10381 37.95356 38104 ft 401 kts 264°
2026-05-06 10:00 29.10306 37.88967 38097 ft 402 kts 264°
2026-05-06 10:01 29.10228 37.82575 38097 ft 402 kts 264°
2026-05-06 10:01 29.10148 37.76179 38090 ft 402 kts 264°
2026-05-06 10:02 29.10064 37.69796 38102 ft 403 kts 264°
2026-05-06 10:02 29.09978 37.63434 38098 ft 403 kts 264°
2026-05-06 10:03 29.09888 37.57017 38089 ft 404 kts 264°
2026-05-06 10:03 29.09796 37.50591 38085 ft 404 kts 265°
2026-05-06 10:04 29.09742 37.44165 38093 ft 405 kts 265°
2026-05-06 10:04 29.09707 37.37729 38084 ft 405 kts 265°
2026-05-06 10:05 29.09666 37.31291 38070 ft 405 kts 265°
2026-05-06 10:05 29.09619 37.24852 38077 ft 405 kts 265°
2026-05-06 10:06 29.09567 37.18413 38077 ft 405 kts 265°
2026-05-06 10:06 29.09512 37.11966 38074 ft 406 kts 265°
2026-05-06 10:07 29.09453 37.05512 38075 ft 406 kts 265°
2026-05-06 10:07 29.09392 36.99059 38087 ft 406 kts 265°
2026-05-06 10:08 29.09327 36.92600 38063 ft 406 kts 265°
2026-05-06 10:08 29.09260 36.86144 38058 ft 407 kts 265°
2026-05-06 10:09 29.09190 36.79719 38054 ft 406 kts 265°
2026-05-06 10:09 29.09116 36.73260 38070 ft 406 kts 265°
2026-05-06 10:10 29.09039 36.66799 38054 ft 407 kts 265°
2026-05-06 10:10 29.08959 36.60327 38045 ft 406 kts 265°
2026-05-06 10:11 29.08877 36.53868 38041 ft 406 kts 265°
2026-05-06 10:11 29.08789 36.47412 38055 ft 407 kts 265°
2026-05-06 10:12 29.08662 36.42039 38056 ft 407 kts 265°
2026-05-06 10:12 29.08475 36.35580 38046 ft 407 kts 264°
2026-05-06 10:13 29.08288 36.29124 38048 ft 407 kts 264°
2026-05-06 10:13 29.08104 36.22663 38062 ft 407 kts 265°
2026-05-06 10:14 29.07919 36.16197 38057 ft 407 kts 265°
2026-05-06 10:14 29.07731 36.09729 38052 ft 407 kts 265°
2026-05-06 10:15 29.07541 36.03259 38054 ft 407 kts 265°
2026-05-06 10:15 29.07347 35.96784 38062 ft 407 kts 265°
2026-05-06 10:16 29.07151 35.90320 38057 ft 407 kts 264°
2026-05-06 10:16 29.06951 35.83857 38060 ft 407 kts 264°
2026-05-06 10:17 29.06748 35.77393 38064 ft 407 kts 264°
2026-05-06 10:17 29.06542 35.70927 38067 ft 407 kts 264°
2026-05-06 10:18 29.06333 35.64464 38058 ft 407 kts 264°
2026-05-06 10:18 29.06122 35.58038 38058 ft 407 kts 265°
2026-05-06 10:19 29.05907 35.51577 38059 ft 407 kts 265°
2026-05-06 10:19 29.05688 35.45111 38058 ft 408 kts 265°
2026-05-06 10:20 29.05466 35.38625 38043 ft 408 kts 264°
2026-05-06 10:20 29.05241 35.32140 38056 ft 408 kts 264°
2026-05-06 10:21 29.05017 35.25663 38055 ft 408 kts 265°
2026-05-06 10:21 29.04785 35.19187 38037 ft 408 kts 264°
2026-05-06 10:22 29.04549 35.12726 38040 ft 409 kts 265°
2026-05-06 10:22 29.04310 35.06229 38038 ft 410 kts 265°
2026-05-06 10:23 29.04069 34.99724 38042 ft 410 kts 264°
2026-05-06 10:23 29.03824 34.93206 38043 ft 410 kts 265°
2026-05-06 10:24 29.03577 34.86709 38040 ft 411 kts 265°
2026-05-06 10:24 29.03381 34.80186 38040 ft 411 kts 266°
2026-05-06 10:25 29.03262 34.73666 38038 ft 410 kts 266°
2026-05-06 10:25 29.03480 34.67144 38051 ft 414 kts 275°
2026-05-06 10:26 29.04991 34.60780 38071 ft 418 kts 284°
2026-05-06 10:26 29.06881 34.54491 38045 ft 419 kts 284°
2026-05-06 10:27 29.08751 34.48198 38055 ft 418 kts 283°
2026-05-06 10:27 29.10603 34.41891 38061 ft 418 kts 284°
2026-05-06 10:28 29.12430 34.35637 38062 ft 417 kts 284°
2026-05-06 10:28 29.14261 34.29356 38064 ft 416 kts 284°
2026-05-06 10:29 29.16087 34.23080 38058 ft 416 kts 284°
2026-05-06 10:29 29.17910 34.16805 38064 ft 416 kts 284°
2026-05-06 10:30 29.19729 34.10531 38074 ft 416 kts 284°
2026-05-06 10:30 29.21547 34.04247 38074 ft 416 kts 284°
2026-05-06 10:31 29.23362 33.97962 38075 ft 416 kts 284°
2026-05-06 10:31 29.25174 33.91678 38078 ft 416 kts 284°
2026-05-06 10:32 29.26987 33.85387 38076 ft 416 kts 284°
2026-05-06 10:32 29.28797 33.79091 38064 ft 416 kts 284°
2026-05-06 10:33 29.30598 33.72813 38070 ft 416 kts 284°
2026-05-06 10:33 29.32362 33.66654 38080 ft 416 kts 284°
2026-05-06 10:34 29.34164 33.60345 38065 ft 416 kts 284°
2026-05-06 10:34 29.35960 33.54048 38067 ft 416 kts 284°
2026-05-06 10:35 29.37741 33.47793 38071 ft 415 kts 284°
2026-05-06 10:35 29.39517 33.41539 38073 ft 415 kts 284°
2026-05-06 10:36 29.41303 33.35240 38065 ft 415 kts 284°
2026-05-06 10:36 29.43062 33.29022 38068 ft 415 kts 284°
2026-05-06 10:37 29.44844 33.22711 38075 ft 416 kts 284°
2026-05-06 10:37 29.46622 33.16400 38071 ft 416 kts 284°
2026-05-06 10:38 29.48396 33.10090 38084 ft 416 kts 284°
2026-05-06 10:38 29.50170 33.03769 38068 ft 416 kts 284°
2026-05-06 10:39 29.51933 32.97474 38075 ft 416 kts 284°
2026-05-06 10:39 29.53694 32.91173 38082 ft 415 kts 284°
2026-05-06 10:40 29.55460 32.84838 37704 ft 421 kts 285°
2026-05-06 10:40 29.56347 32.81653 37172 ft 416 kts 285°
2026-05-06 10:40 29.57226 32.78498 36564 ft 414 kts 285°
2026-05-06 10:41 29.58072 32.75454 35949 ft 413 kts 285°
2026-05-06 10:41 29.58944 32.72311 35253 ft 414 kts 285°
2026-05-06 10:41 29.59821 32.69147 34539 ft 416 kts 285°
2026-05-06 10:41 29.60639 32.65968 33543 ft 421 kts 283°
2026-05-06 10:42 29.61396 32.62690 32692 ft 422 kts 282°
2026-05-06 10:42 29.62118 32.59436 31862 ft 424 kts 282°
2026-05-06 10:42 29.62845 32.56128 31021 ft 425 kts 282°
2026-05-06 10:42 29.63564 32.52869 30175 ft 426 kts 282°
2026-05-06 10:43 29.64311 32.49514 29130 ft 428 kts 282°
2026-05-06 10:43 29.65045 32.46236 28142 ft 429 kts 283°
2026-05-06 10:43 29.65792 32.42910 27128 ft 431 kts 283°
2026-05-06 10:44 29.67298 32.36216 25346 ft 430 kts 283°
2026-05-06 10:44 29.68044 32.32896 24592 ft 428 kts 283°
2026-05-06 10:44 29.68786 32.29595 23833 ft 425 kts 284°
2026-05-06 10:44 29.69523 32.26302 22986 ft 428 kts 284°
2026-05-06 10:45 29.70272 32.22958 22185 ft 434 kts 284°
2026-05-06 10:45 29.71020 32.19609 21393 ft 430 kts 284°
2026-05-06 10:45 29.71759 32.16299 20638 ft 425 kts 284°
2026-05-06 10:45 29.72488 32.13028 19892 ft 419 kts 284°
2026-05-06 10:46 29.73207 32.09797 19156 ft 414 kts 284°
2026-05-06 10:46 29.73918 32.06599 18404 ft 411 kts 284°
2026-05-06 10:46 29.74621 32.03433 17581 ft 407 kts 284°
2026-05-06 10:46 29.75318 32.00292 16818 ft 403 kts 284°
2026-05-06 10:47 29.76006 31.97186 16081 ft 398 kts 284°
2026-05-06 10:47 29.76687 31.94110 15358 ft 394 kts 284°
2026-05-06 10:47 29.77359 31.91069 14643 ft 391 kts 284°
2026-05-06 10:47 29.77970 31.88040 13915 ft 388 kts 279°
2026-05-06 10:48 29.78189 31.84954 13106 ft 385 kts 270°
2026-05-06 10:48 29.77991 31.81892 12335 ft 382 kts 265°
2026-05-06 10:48 29.77737 31.78859 11555 ft 380 kts 265°
2026-05-06 10:48 29.77494 31.75856 11167 ft 369 kts 266°
2026-05-06 10:49 29.77268 31.72982 10957 ft 353 kts 266°
2026-05-06 10:49 29.77054 31.70229 10815 ft 338 kts 266°
2026-05-06 10:49 29.76852 31.67590 10664 ft 325 kts 266°
2026-05-06 10:49 29.76659 31.65050 10526 ft 312 kts 266°
2026-05-06 10:50 29.76472 31.62605 10398 ft 301 kts 266°
2026-05-06 10:50 29.76294 31.60274 10263 ft 292 kts 266°
2026-05-06 10:50 29.76117 31.57959 10153 ft 283 kts 266°
2026-05-06 10:50 29.75946 31.55722 9892 ft 279 kts 266°
2026-05-06 10:51 29.75777 31.53503 9590 ft 277 kts 266°
2026-05-06 10:51 29.75609 31.51304 9269 ft 276 kts 266°
2026-05-06 10:51 29.75440 31.49113 8957 ft 274 kts 266°
2026-05-06 10:51 29.75271 31.46936 8653 ft 272 kts 266°
2026-05-06 10:52 29.75104 31.44774 8350 ft 271 kts 266°
2026-05-06 10:52 29.74938 31.42624 8055 ft 269 kts 266°
2026-05-06 10:52 29.74773 31.40492 7760 ft 267 kts 266°
2026-05-06 10:52 29.74607 31.38366 7481 ft 266 kts 266°
2026-05-06 10:53 29.74442 31.36250 7203 ft 265 kts 267°
2026-05-06 10:53 29.74277 31.34141 6922 ft 265 kts 266°
2026-05-06 10:53 29.74193 31.32027 6621 ft 263 kts 279°
2026-05-06 10:53 29.74832 31.30126 6329 ft 260 kts 307°
2026-05-06 10:54 29.76150 31.28740 6061 ft 257 kts 330°
2026-05-06 10:54 29.77794 31.27989 5780 ft 254 kts 344°
2026-05-06 10:54 29.79506 31.27489 5516 ft 254 kts 346°
2026-05-06 10:54 29.81241 31.27008 5243 ft 255 kts 346°
2026-05-06 10:55 29.82942 31.26541 4937 ft 255 kts 347°
2026-05-06 10:55 29.84666 31.26064 4643 ft 253 kts 347°
2026-05-06 10:55 29.86376 31.25575 4378 ft 254 kts 346°
2026-05-06 10:55 29.88096 31.25089 4101 ft 256 kts 347°
2026-05-06 10:56 29.89819 31.24605 3877 ft 251 kts 347°
2026-05-06 10:56 29.91494 31.24127 3711 ft 244 kts 346°
2026-05-06 10:56 29.93102 31.23690 3689 ft 231 kts 348°
2026-05-06 10:56 29.94611 31.23275 3554 ft 214 kts 346°
2026-05-06 10:57 29.96007 31.22851 3419 ft 201 kts 346°
2026-05-06 10:57 29.97322 31.22466 3318 ft 189 kts 346°
2026-05-06 10:57 29.98554 31.22105 3193 ft 177 kts 346°
2026-05-06 10:57 29.99733 31.22077 3025 ft 168 kts 21°
2026-05-06 10:58 30.00653 31.22853 2944 ft 165 kts 45°
2026-05-06 10:58 30.01420 31.23845 2845 ft 167 kts 46°
2026-05-06 10:58 30.02174 31.24859 2774 ft 164 kts 47°
2026-05-06 10:58 30.02917 31.25854 2649 ft 162 kts 47°
2026-05-06 10:59 30.03640 31.26823 2566 ft 161 kts 47°
2026-05-06 10:59 30.04334 31.27763 2510 ft 146 kts 46°
2026-05-06 10:59 30.04962 31.28606 2505 ft 143 kts 46°
2026-05-06 10:59 30.05404 31.29201 2534 ft 146 kts 46°
2026-05-06 11:00 30.06069 31.30098 2499 ft 147 kts 47°
2026-05-06 11:00 30.06944 31.31257 2534 ft 152 kts 50°
2026-05-06 11:00 30.07703 31.32286 2347 ft 173 kts 48°
2026-05-06 11:00 30.08490 31.33432 1734 ft 183 kts 48°
2026-05-06 11:01 30.09031 31.34181 1407 ft 174 kts 46°
2026-05-06 11:01 30.09813 31.35130 1203 ft 155 kts 45°
2026-05-06 11:01 30.10493 31.36008 1065 ft 144 kts 49°
2026-05-06 11:01 30.11130 31.36914 786 ft 144 kts 47°
2026-05-06 11:02 30.11782 31.37787 523 ft 142 kts 43°
2026-05-06 11:02 30.12414 31.38624 382 ft 134 kts 47°
2026-05-06 11:02 30.12923 31.39302 372 ft 61 kts 50°
2026-05-06 11:02 30.13082 31.39549 374 ft 26 kts 64°
2026-05-06 11:03 30.13130 31.39714 374 ft 21 kts 78°
2026-05-06 11:03 30.13153 31.39829 374 ft 13 kts 77°
2026-05-06 11:03 30.13172 31.39925 373 ft 12 kts 74°
2026-05-06 11:03 30.13214 31.40012 373 ft 13 kts 53°
2026-05-06 11:04 30.13276 31.40101 373 ft 16 kts 63°
2026-05-06 11:04 30.13268 31.40236 373 ft 19 kts 101°
2026-05-06 11:04 30.13239 31.40390 373 ft 20 kts 106°
2026-05-06 11:04 30.13186 31.40545 373 ft 20 kts 117°
2026-05-06 11:05 30.13092 31.40656 374 ft 20 kts 160°
2026-05-06 11:05 30.12954 31.40709 374 ft 22 kts 162°
2026-05-06 11:05 30.12819 31.40759 374 ft 17 kts 163°
2026-05-06 11:05 30.12698 31.40802 374 ft 19 kts 162°
2026-05-06 11:06 30.12567 31.40850 374 ft 20 kts 162°
2026-05-06 11:06 30.12431 31.40899 374 ft 20 kts 163°
2026-05-06 11:06 30.12300 31.40946 374 ft 20 kts 162°
2026-05-06 11:06 30.12165 31.40997 374 ft 20 kts 162°
2026-05-06 11:07 30.12033 31.41044 374 ft 16 kts 163°
2026-05-06 11:07 30.11938 31.41078 374 ft 10 kts 162°
2026-05-06 11:07 30.11905 31.41072 374 ft 4 kts 229°
2026-05-06 11:07 30.11888 31.41031 374 ft 7 kts 251°
2026-05-06 11:08 30.11876 31.40990 374 ft 2 kts 252°
2026-05-06 11:08 30.11874 31.40981 374 ft 0 kts 252°